FW7746 Weather Reports


Display with metric or nautical units.
time (UTC)temp
F
wind
direction
speed
MPH
gust
MPH
rain 1hr
in
rain 24hr
in
rain mn
in
humidity
%
barometer
mb
20260902165104 56 150 2.0 5.0 0.00 0.00 0.00 62 1005.9
20260902164605 56 146 1.0 8.0 0.00 0.00 0.00 62 1005.9
20260902164104 57 180 1.0 3.0 0.00 0.00 0.00 63 1005.7
20260902163604 56 164 0.0 7.0 0.00 0.00 0.00 63 1005.8
20260902162604 56 132 0.0 3.0 0.00 0.00 0.00 65 1006.0
20260902162104 56 127 1.0 5.0 0.00 0.00 0.00 66 1006.0
20260902161604 56 138 1.0 5.0 0.00 0.00 0.00 66 1006.1
20260902161104 56 121 0.0 3.0 0.00 0.00 0.00 66 1006.1
20260902160104 55 161 0.0 3.0 0.00 0.00 0.00 67 1006.1
20260902155604 56 192 0.0 2.0 0.00 0.00 0.00 68 1006.2
20260902154604 55 199 0.0 0.0 0.00 0.00 0.00 69 1006.3
20260902153605 55 202 0.0 0.0 0.00 0.00 0.00 71 1006.4
20260902153104 55 214 0.0 1.0 0.00 0.00 0.00 71 1006.4
20260902152604 55 121 0.0 0.0 0.00 0.00 0.00 72 1006.6
20260902151604 54 218 0.0 2.0 0.00 0.00 0.00 73 1006.7
20260902151105 54 235 0.0 3.0 0.00 0.00 0.00 73 1006.7
20260902150604 54 222 0.0 3.0 0.00 0.00 0.00 73 1007.0
20260902150105 54 217 0.0 0.0 0.00 0.00 0.00 73 1007.0
20260902145604 54 217 0.0 2.0 0.00 0.00 0.00 73 1007.0
20260902145104 54 214 0.0 3.0 0.00 0.00 0.00 73 1007.0
20260902144604 54 189 0.0 1.0 0.00 0.00 0.00 73 1007.1
20260902144104 54 196 0.0 1.0 0.00 0.00 0.00 74 1007.1
20260902143604 53 85 0.0 2.0 0.00 0.00 0.00 74 1007.1
20260902143104 53 85 0.0 3.0 0.00 0.00 0.00 74 1007.1
20260902142104 53 181 0.0 0.0 0.00 0.00 0.00 75 1007.1
20260902141605 53 182 0.0 2.0 0.00 0.00 0.00 75 1007.1
20260902141104 53 173 0.0 0.0 0.00 0.00 0.00 76 1007.1
20260902140604 53 173 0.0 3.0 0.00 0.00 0.00 76 1007.2
20260902140105 53 148 0.0 0.0 0.00 0.00 0.00 76 1007.1
20260902135605 53 148 0.0 0.0 0.00 0.00 0.00 76 1007.2
20260902135104 53 120 0.0 0.0 0.00 0.00 0.00 76 1007.2
20260902134104 52 115 0.0 0.0 0.00 0.00 0.00 76 1007.2
20260902133604 52 113 0.0 0.0 0.00 0.00 0.00 77 1007.2
20260902133105 52 113 0.0 0.0 0.00 0.00 0.00 77 1007.2
20260902132604 52 113 0.0 0.0 0.00 0.00 0.00 78 1007.2
20260902132104 52 113 0.0 0.0 0.00 0.00 0.00 78 1007.2
20260902131604 52 113 0.0 0.0 0.00 0.00 0.00 78 1007.3
20260902131104 52 113 0.0 0.0 0.00 0.00 0.00 78 1007.3
20260902130604 52 113 0.0 0.0 0.00 0.00 0.00 78 1007.3
20260902130105 53 113 0.0 0.0 0.00 0.00 0.00 78 1007.4
20260902125605 53 113 0.0 3.0 0.00 0.00 0.00 78 1007.4
20260902125104 53 225 0.0 1.0 0.00 0.00 0.00 77 1007.4
20260902124604 53 235 0.0 2.0 0.00 0.00 0.00 77 1007.4
20260902124104 53 156 0.0 3.0 0.00 0.00 0.00 77 1007.4
20260902123604 53 151 0.0 0.0 0.00 0.00 0.00 76 1007.4
20260902123104 53 151 0.0 0.0 0.00 0.00 0.00 76 1007.5
20260902122104 53 151 0.0 1.0 0.00 0.00 0.00 76 1007.6
20260902121604 53 151 0.0 0.0 0.00 0.00 0.00 76 1007.6
20260902121104 53 151 0.0 0.0 0.00 0.00 0.00 76 1007.6
20260902120604 53 151 0.0 0.0 0.00 0.00 0.00 76 1007.6
20260902120105 53 151 0.0 0.0 0.00 0.00 0.00 76 1007.6
20260902115604 53 151 0.0 0.0 0.00 0.00 0.00 76 1007.7
20260902115104 53 151 0.0 0.0 0.00 0.00 0.00 76 1007.7
20260902114604 53 151 0.0 1.0 0.00 0.00 0.00 76 1007.7
20260902113605 53 151 0.0 0.0 0.00 0.00 0.00 76 1007.8
20260902113104 53 151 0.0 0.0 0.00 0.00 0.00 76 1007.7
20260902112104 53 151 0.0 0.0 0.00 0.00 0.00 76 1007.8
20260902111604 53 151 0.0 0.0 0.00 0.00 0.00 76 1007.8
20260902111104 53 151 0.0 0.0 0.00 0.00 0.00 76 1007.8
20260902110105 53 151 0.0 1.0 0.00 0.00 0.00 76 1007.9
20260902105605 52 151 0.0 0.0 0.00 0.00 0.00 77 1007.9
20260902105104 52 151 0.0 0.0 0.00 0.00 0.00 78 1007.9
20260902104605 51 151 0.0 0.0 0.00 0.00 0.00 78 1007.9
20260902104104 51 151 0.0 0.0 0.00 0.00 0.00 78 1008.0
20260902103604 51 151 0.0 0.0 0.00 0.00 0.00 78 1008.0
20260902103104 51 151 0.0 0.0 0.00 0.00 0.00 78 1007.9
20260902102604 51 151 0.0 0.0 0.00 0.00 0.00 78 1008.0
20260902102104 51 151 0.0 0.0 0.00 0.00 0.00 79 1008.0
20260902101604 51 151 0.0 0.0 0.00 0.00 0.00 79 1008.1
20260902101104 50 151 0.0 0.0 0.00 0.00 0.00 80 1008.1
20260902100604 50 151 0.0 0.0 0.00 0.00 0.00 80 1008.1
20260902100105 50 151 0.0 0.0 0.00 0.00 0.00 80 1008.2
20260902095605 50 151 0.0 0.0 0.00 0.00 0.00 81 1008.2
20260902095105 49 151 0.0 0.0 0.00 0.00 0.00 81 1008.2
20260902093105 49 151 0.0 0.0 0.00 0.00 0.00 82 1008.4
20260902092604 49 151 0.0 0.0 0.00 0.00 0.00 81 1008.4
20260902092104 49 151 0.0 0.0 0.00 0.00 0.00 81 1008.3
20260902091605 49 151 0.0 0.0 0.00 0.00 0.00 81 1008.3
20260902091104 49 151 0.0 0.0 0.00 0.00 0.00 80 1008.3
20260902090604 49 151 0.0 0.0 0.00 0.00 0.00 81 1008.4
20260902090104 50 151 0.0 0.0 0.00 0.00 0.00 80 1008.5
20260902085605 50 151 0.0 0.0 0.00 0.00 0.00 78 1008.5
20260902085104 50 151 0.0 0.0 0.00 0.00 0.00 78 1008.5
20260902084104 51 151 0.0 0.0 0.00 0.00 0.00 77 1008.2
20260902083604 51 151 0.0 0.0 0.00 0.00 0.00 77 1008.2
20260902083104 51 151 0.0 0.0 0.00 0.00 0.00 77 1008.3
20260902082104 51 151 0.0 0.0 0.00 0.00 0.00 76 1008.1
20260902081604 52 151 0.0 0.0 0.00 0.00 0.00 76 1008.0
20260902081104 52 151 0.0 0.0 0.00 0.00 0.00 76 1008.0
20260902075605 52 151 0.0 0.0 0.00 0.00 0.00 75 1007.9
20260902075104 52 151 0.0 0.0 0.00 0.00 0.00 75 1007.9
20260902074604 52 151 0.0 0.0 0.00 0.00 0.00 74 1007.9
20260902073104 53 151 0.0 0.0 0.00 0.00 0.00 74 1007.8
20260902072605 53 151 0.0 0.0 0.00 0.00 0.00 74 1007.8
20260902071604 53 159 0.0 0.0 0.00 0.00 0.00 74 1007.7
20260902070604 53 159 0.0 0.0 0.00 0.00 0.00 73 1007.6
20260902070105 53 159 0.0 0.0 0.00 0.00 0.00 73 1007.4
20260902065604 53 159 0.0 0.0 0.00 0.00 0.00 72 1007.5
20260902065104 54 159 0.0 0.0 0.00 0.00 0.00 71 1007.5
20260902064104 54 159 0.0 0.0 0.00 0.00 0.00 71 1007.7
20260902063604 55 159 0.0 0.0 0.00 0.00 0.00 70 1007.7
20260902063104 55 159 0.0 0.0 0.00 0.00 0.00 69 1007.8
20260902062604 55 159 0.0 0.0 0.00 0.00 0.00 70 1007.8
20260902061604 55 159 0.0 0.0 0.00 0.00 0.00 70 1007.7
20260902061104 55 159 0.0 0.0 0.00 0.00 0.00 69 1007.9
20260902060604 55 159 0.0 0.0 0.00 0.00 0.00 69 1007.8
20260902060104 55 159 0.0 0.0 0.00 0.00 0.00 68 1007.8
20260902055604 87 232 0.0 0.0 0.00 0.00 0.00 21 1010.4